Weather History for VOTR - August, 2013

Change the Weather History Date:

Wednesday, August 21, 2013

  Actual Average Record
Temperature  
Mean Temperature 90 °F -  
Max Temperature 99 °F 91 °F 100 °F (2005)
Min Temperature 80 °F 78 °F 75 °F (1996)
Cooling Degree Days 24    
Growing Degree Days 40 (Base 50)    
Moisture  
Dew Point 67 °F    
Average Humidity 48    
Maximum Humidity 65    
Minimum Humidity 25    
Precipitation  
Precipitation 0.00 in - - ()
Sea Level Pressure  
Sea Level Pressure 29.72 in    
Wind  
Wind Speed 13 mph ()    
Max Wind Speed 22 mph    
Max Gust Speed 33 mph    
Visibility 3.8 miles    
Events      
Averages and records for this station are not official NWS values.
T = Trace of Precipitation, MM = Missing Value Source: Averaged Metar Reports

Daily Weather History Graph

Daily Weather History Graph

Search for Another Location

Airport or City:

Trip Planner

Search our weather history database for the weather conditions in past years. The results will help you decide how hot, cold, wet, or windy it might be!

Date:

Astronomy

Aug. 21, 2013 Rise Set
Actual Time 6:05 AM IST 6:30 PM IST
Civil Twilight 5:43 AM IST 6:52 PM IST
Nautical Twilight 5:18 AM IST 7:17 PM IST
Astronomical Twilight 4:53 AM IST 7:43 PM IST
Moon 6:40 PM IST (8/21) 6:01 AM IST (8/21)
Length of Visible Light 13h 08m
Length of Day
12h 25m
Full, 100% of the Moon is Illuminated
Aug 21
Full
Aug 28
Last Quarter
Sep 5
New
Sep 12
First Quarter
Sep 19
Full

Hourly Weather History & Observations

Time (IST) Temp. Heat Index Dew Point Humidity Pressure Visibility Wind Dir Wind Speed Gust Speed Precip Events Conditions
12:10 AM 84.2 °F 86.6 °F 66.2 °F 55% 29.74 in 3.7 mi West 16.1 mph - N/A   Scattered Clouds
12:40 AM 84.2 °F 86.6 °F 66.2 °F 55% 29.74 in 3.7 mi West 11.5 mph - N/A   Scattered Clouds
1:10 AM 84.2 °F 86.6 °F 66.2 °F 55% 29.74 in 3.7 mi West 13.8 mph - N/A   Scattered Clouds
1:40 AM 84.2 °F 86.6 °F 66.2 °F 55% 29.74 in 3.7 mi West 13.8 mph - N/A   Scattered Clouds
2:10 AM 84.2 °F 86.6 °F 66.2 °F 55% 29.71 in 3.7 mi West 16.1 mph - N/A   Scattered Clouds
2:30 AM 83 °F - 65 °F 45% 29.72 in 2 mi West 9.2 mph - -   Haze
2:40 AM 82.4 °F 85.4 °F 68.0 °F 62% 29.71 in 3.7 mi West 16.1 mph - N/A   Scattered Clouds
3:10 AM 82.4 °F 84.6 °F 66.2 °F 58% 29.71 in 3.7 mi West 16.1 mph - N/A   Scattered Clouds
3:40 AM 82.4 °F 84.6 °F 66.2 °F 58% 29.71 in 3.7 mi West 9.2 mph - N/A   Scattered Clouds
4:10 AM 82.4 °F 84.6 °F 66.2 °F 58% 29.71 in 3.7 mi West 13.8 mph - N/A   Scattered Clouds
4:40 AM 82.4 °F 84.6 °F 66.2 °F 58% 29.71 in 3.7 mi West 13.8 mph - N/A   Scattered Clouds
5:10 AM 82.4 °F 84.6 °F 66.2 °F 58% 29.71 in 3.7 mi WSW 13.8 mph - N/A   Scattered Clouds
5:30 AM 82 °F - 68 °F 54% 29.73 in 2 mi WNW 13.8 mph - -   Haze
5:40 AM 82.4 °F 85.4 °F 68.0 °F 62% 29.71 in 3.7 mi WNW 13.8 mph - N/A   Scattered Clouds
6:10 AM 80.6 °F 83.2 °F 68.0 °F 65% 29.71 in 3.7 mi West 16.1 mph - N/A   Scattered Clouds
6:40 AM 82.4 °F 85.4 °F 68.0 °F 62% 29.74 in 3.7 mi West 13.8 mph - N/A   Scattered Clouds
7:10 AM 82.4 °F 84.6 °F 66.2 °F 58% 29.74 in 3.7 mi WNW 16.1 mph - N/A   Scattered Clouds
7:40 AM 84.2 °F 86.6 °F 66.2 °F 55% 29.74 in 3.7 mi West 13.8 mph - N/A   Scattered Clouds
8:10 AM 86.0 °F 89.4 °F 68.0 °F 55% 29.77 in 3.7 mi West 13.8 mph - N/A   Partly Cloudy
8:30 AM 85 °F - 69 °F 50% 29.78 in 2 mi West 15.0 mph - -   Haze
8:40 AM 86.0 °F 89.4 °F 68.0 °F 55% 29.80 in 3.7 mi West 15.0 mph 26.5 mph N/A   Partly Cloudy
9:10 AM 87.8 °F 91.4 °F 68.0 °F 52% 29.80 in 3.7 mi West 13.8 mph 25.3 mph N/A   Partly Cloudy
9:40 AM 89.6 °F 93.4 °F 68.0 °F 49% 29.77 in 3.7 mi West 18.4 mph 29.9 mph N/A   Partly Cloudy
10:10 AM 91.4 °F 95.4 °F 68.0 °F 46% 29.77 in 3.7 mi West 19.6 mph 31.1 mph N/A   Partly Cloudy
10:40 AM 93.2 °F 97.7 °F 68.0 °F 44% 29.77 in 3.7 mi West 16.1 mph 27.6 mph N/A   Partly Cloudy
11:10 AM 95.0 °F 99.5 °F 68.0 °F 41% 29.77 in 3.7 mi West 17.3 mph 28.8 mph N/A   Partly Cloudy
11:40 AM 95.0 °F 98.5 °F 66.2 °F 39% 29.74 in 3.7 mi WNW 13.8 mph 25.3 mph N/A   Partly Cloudy
12:10 PM 96.8 °F 101.8 °F 68.0 °F 39% 29.74 in 4.3 mi West 16.1 mph 27.6 mph N/A   Scattered Clouds
12:40 PM 98.6 °F 104.1 °F 68.0 °F 37% 29.71 in 5.0 mi West 18.4 mph 29.9 mph N/A   Scattered Clouds
1:10 PM 98.6 °F 104.1 °F 68.0 °F 37% 29.71 in 5.0 mi West 21.9 mph 33.4 mph N/A   Scattered Clouds
1:40 PM 98.6 °F 104.1 °F 68.0 °F 37% 29.68 in 5.0 mi West 19.6 mph 31.1 mph N/A   Scattered Clouds
2:10 PM 98.6 °F 104.1 °F 68.0 °F 37% 29.68 in 5.0 mi West 13.8 mph 25.3 mph N/A   Scattered Clouds
2:30 PM 97 °F - 65 °F 25% 29.67 in 2 mi West 13.8 mph - -   Haze
2:40 PM 96.8 °F 101.8 °F 68.0 °F 39% 29.65 in 5.0 mi WNW 13.8 mph 25.3 mph N/A   Scattered Clouds
3:10 PM 96.8 °F 101.8 °F 68.0 °F 39% 29.65 in 5.0 mi West 12.7 mph 24.2 mph N/A   Scattered Clouds
3:40 PM 98.6 °F 102.8 °F 66.2 °F 35% 29.65 in 5.0 mi West 11.5 mph 23.0 mph N/A   Scattered Clouds
4:10 PM 98.6 °F 102.8 °F 66.2 °F 35% 29.62 in 5.0 mi West 11.5 mph 23.0 mph N/A   Scattered Clouds
4:40 PM 98.6 °F 104.1 °F 68.0 °F 37% 29.65 in 5.0 mi West 11.5 mph 23.0 mph N/A   Scattered Clouds
5:10 PM 98.6 °F 102.8 °F 66.2 °F 35% 29.65 in 5.0 mi West 11.5 mph 23.0 mph N/A   Scattered Clouds
5:30 PM 97 °F - 65 °F 25% 29.64 in 2 mi West 15.0 mph - -   Haze
5:40 PM 96.8 °F 101.8 °F 68.0 °F 39% 29.65 in 5.0 mi West 10.4 mph 21.9 mph N/A   Scattered Clouds
6:10 PM 96.8 °F 101.8 °F 68.0 °F 39% 29.65 in 5.0 mi West 9.2 mph 20.7 mph N/A   Scattered Clouds
6:40 PM 96.8 °F 101.8 °F 68.0 °F 39% 29.68 in 4.3 mi West 9.2 mph 20.7 mph N/A   Scattered Clouds
7:10 PM 93.2 °F 96.2 °F 66.2 °F 41% 29.68 in 3.7 mi West 11.5 mph 23.0 mph N/A   Scattered Clouds
7:40 PM 91.4 °F 94.0 °F 66.2 °F 43% 29.71 in 3.7 mi West 9.2 mph 20.7 mph N/A   Scattered Clouds
8:10 PM 89.6 °F 93.4 °F 68.0 °F 49% 29.71 in 3.7 mi West 12.7 mph - N/A   Scattered Clouds
8:30 PM 89 °F - 66 °F 37% 29.72 in 2 mi West 11.5 mph - -   Haze
8:40 PM 89.6 °F 93.4 °F 68.0 °F 49% 29.74 in 3.7 mi West 13.8 mph 25.3 mph N/A   Scattered Clouds
9:10 PM 89.6 °F 93.4 °F 68.0 °F 49% 29.74 in 3.7 mi West 11.5 mph 23.0 mph N/A   Scattered Clouds
9:40 PM 89.6 °F 93.4 °F 68.0 °F 49% 29.74 in 3.7 mi West 11.5 mph 23.0 mph N/A   Scattered Clouds
10:10 PM 87.8 °F 91.4 °F 68.0 °F 52% 29.77 in 3.7 mi West 13.8 mph 25.3 mph N/A   Scattered Clouds
10:40 PM 86.0 °F 89.4 °F 68.0 °F 55% 29.77 in 3.7 mi WNW 15.0 mph 26.5 mph N/A   Scattered Clouds
11:10 PM 86.0 °F 89.4 °F 68.0 °F 55% 29.77 in 3.7 mi West 17.3 mph 28.8 mph N/A   Scattered Clouds
11:30 PM 85 °F - 66 °F 43% 29.76 in 2 mi West 17.3 mph - -   Haze
11:40 PM 84.2 °F 87.3 °F 68.0 °F 58% 29.77 in 3.7 mi West 16.1 mph 27.6 mph N/A   Scattered Clouds